Flag for Sudan Weather past 2 weeks in Khartoum, Sudan

Now
88 °F

Clear.


Feels Like: 88 °F
Forecast: 86 / 105 °F
Wind: 9 mph from Southwest

Location: Khartoum Airport

Current Time: Sep 5, 2015 at 4:20:47 AM

Latest Report: Sep 5, 2015 at 4:00 AM


Visibility: 10 mi

Pressure: 29.83 "Hg

Humidity: 43%

Dew point: 63 °F

Location of KhartoumLocation

Historic Weather in Khartoum — Graph

°F

Khartoum temperature yesterday

Maximum temperature yesterday: 100 °F (at 3:00 PM)
Minimum temperature yesterday: 81 °F (at 7:00 AM)
Average temperature yesterday: 92 °F

Past Weeks' High & Low Weather Summary

 TemperatureHumidityPressure
High108 °F (Aug 21, 3:00 PM)83% (Aug 26, 9:00 AM)29.98 "Hg (Aug 26, 9:00 AM)
Low75 °F (Aug 26, 8:00 AM)8% (Sep 3, 5:00 PM)29.65 "Hg (Aug 21, 5:00 PM)
Average91 °F43%29.83 "Hg
* Reported Aug 21 3:00 AM — Sep 5 3:00 AM, Khartoum, Weather by CustomWeather, © 2015

Note: Actual official high and low records may vary slightly from our data, if they occured in-between our weather recording intervals... More about our weather records

Advertising

Khartoum weather history for previous 24 hours

 ConditionsComfort  
Time TempWeatherWind HumidityBarometerVisibility
3:00 AM
Sat, Sep 5
88 °FClear.9 mph43%29.80 "Hg10 mi
2:30 AMN/AClear.9 mphN/A29.80 "Hg10 mi
2:00 AM88 °FClear.8 mph38%29.83 "Hg10 mi
1:30 AMN/AClear.7 mphN/A29.83 "Hg10 mi
1:00 AM90 °FClear.7 mph36%29.83 "Hg10 mi
12:30 AMN/AClear.8 mphN/A29.83 "Hg10 mi
12:00 AM91 °FClear.7 mph34%29.83 "Hg10 mi
11:30 PM
Fri, Sep 4
N/AClear.7 mphN/A29.86 "Hg10 mi
11:00 PM93 °FClear.7 mph30%29.86 "Hg10 mi
10:30 PMN/AClear.7 mphN/A29.86 "Hg10 mi
10:00 PM95 °FClear.7 mph30%29.83 "Hg10 mi
9:30 PMN/AClear.7 mphN/A29.83 "Hg10 mi
9:00 PM95 °FClear.9 mph30%29.83 "Hg10 mi
8:30 PMN/AClear.8 mphN/A29.83 "Hg10 mi
8:00 PM97 °FClear.8 mph27%29.80 "Hg10 mi
7:30 PMN/AClear.7 mphN/A29.80 "Hg10 mi
6:30 PMN/ASunny.6 mphN/A29.80 "Hg10 mi
6:00 PM100 °FSunny.9 mph20%29.80 "Hg10 mi
5:30 PMN/ASunny.9 mphN/A29.80 "Hg10 mi
5:00 PM100 °FSunny.9 mph20%29.80 "Hg10 mi
4:30 PMN/ASunny.7 mphN/A29.80 "Hg10 mi
4:00 PM100 °FSunny.7 mph20%29.80 "Hg10 mi
3:30 PMN/ASunny.7 mphN/A29.80 "Hg10 mi
3:00 PM100 °FSunny.7 mph20%29.83 "Hg10 mi
2:30 PMN/ASunny.7 mphN/A29.83 "Hg10 mi
2:00 PM99 °FSunny.7 mph21%29.83 "Hg10 mi
1:30 PMN/ASunny.9 mphN/A29.86 "Hg10 mi
1:00 PM97 °FSunny.14 mph27%29.86 "Hg10 mi
12:30 PMN/ASunny.12 mphN/A29.86 "Hg10 mi
12:00 PM95 °FSunny.12 mph34%29.89 "Hg10 mi
11:30 AMN/ASunny.14 mphN/A29.89 "Hg10 mi
11:00 AM90 °FSunny.13 mph43%29.86 "Hg10 mi
10:30 AMN/ASunny.15 mphN/A29.86 "Hg10 mi
10:00 AM88 °FSunny.14 mph43%29.86 "Hg10 mi
9:30 AMN/ASunny.14 mphN/A29.86 "Hg10 mi
9:00 AM82 °FSunny.12 mph58%29.86 "Hg10 mi
8:30 AMN/ASunny.12 mphN/A29.86 "Hg10 mi
8:00 AM81 °FSunny.10 mph62%29.86 "Hg10 mi
7:30 AMN/ASunny.13 mphN/A29.83 "Hg10 mi
7:00 AM81 °FSunny.14 mph62%29.86 "Hg10 mi
6:30 AMN/AClear.15 mphN/AN/A10 mi
6:00 AM82 °FClear.15 mph51%29.86 "Hg10 mi
5:30 AMN/AClear.16 mphN/A29.86 "Hg10 mi
5:00 AM84 °FClear.16 mph51%29.86 "Hg10 mi
4:30 AMN/AClear.16 mphN/A29.83 "Hg10 mi
Weather by CustomWeather, © 2015

See weather overviewHow to use our weather pages